Regional Weather Roundup
Issued by NWS Pendleton, OR

Home | Current Version | Previous Version | Text Only | Print | Product List | Glossary On
Versions: 1 2 3 4 5 6 7 8 9 10 11 12 13 14 15 16 17 18 19 20 21 22 23 24 25 26 27 28 29 30 31 32 33 34 35 36 37 38 39 40 41 42 43 44 45 46 47 48 49 50
000
ASUS46 KPDT 041310
RWRPDT
PENDLETON REGIONAL WEATHER ROUNDUP
NATIONAL WEATHER SERVICE PENDLETON OREGON
600 AM PDT FRI SEP 4 2015

NOTE: FAIR INDICATES FEW OR NO CLOUDS BELOW 12,000 FEET WITH NO
SIGNIFICANT WEATHER AND/OR OBSTRUCTIONS TO VISIBILITY.

# INDICATES UNOFFICIAL STATION AND DATA

WAZ520-041410-
EAST SLOPES OF WASHINGTON CASCADES

CITY            SKY/WX      TMP DP  RH  WIND    PRES   REMARKS
#BULLFROG 2SW   N/A         39  37  92  S1      27.56S
#BUMPING DAM    N/A         35  N/A N/A CALM    N/A
#CLE ELUM HS    N/A         37  34  89  CALM    29.92S
#CLE ELUM LAKE  N/A         42  36  79  E1      29.91S
#CLIFFDEL 2NW   N/A         35  34  96  CALM    N/A
#EASTON DOT     N/A         40  38  92  S1      N/A
#GLENWOOD       N/A         30  28  92  CALM    29.96S
#MANASTASH CYN  N/A         38  29  70  CALM    29.93R
#NELSON 3SW     N/A         38  35  89  CALM    30.14R
#NILE           N/A         37  35  92  CALM    29.22S
#PEOH POINT     N/A         38  36  92  W8      N/A
#RONALD 2NW     N/A         43  -10 10  N2      29.83S
#SNOWDEN        N/A         35  27  72  CALM    N/A
#SOUTH BLEWITT  N/A         34  31  89  CALM    N/A
#TEANAWAY 4NE   N/A         37  34  89  CALM    N/A
#TROUT LAKE 1NE N/A         37  34  89  N2      29.95S
$$

WAZ521-041410-
SIMCOE HIGHLANDS

CITY            SKY/WX      TMP DP  RH  WIND    PRES   REMARKS
#BICKLETON HS   N/A         47  28  47  CALM    N/A
#SATUS PASS DOT N/A         45  33  63  CALM    N/A
#CENTERVILLE 4W N/A         44  40  86  N1      29.68F
#CENTERVILLE 1SWN/A         39  33  79  CALM    29.90S
#GOLDENDALE     N/A         43  35  73  CALM    N/A
#GOLDENDALE 1NE N/A         42  24  48  NW2     N/A
#GOLDENDALE 5WNWN/A         40  34  79  CALM    29.91F
#GOODNOE HILLS  N/A         51  43  74  NW3     N/A
#LYLE 6NE       N/A         46  43  89  CALM    29.90S
$$

WAZ026-041410-
KITTITAS VALLEY

CITY            SKY/WX      TMP DP  RH  WIND    PRES   REMARKS
ELLENSBURG AP   PTCLDY      42  35  76  CALM    29.94S
#ELLENSBURG CWU N/A         42  36  79  CALM    29.89S
#ELLENSBURG 3NE N/A         41  36  82  CALM    29.95S
#KITTITAS 4N    N/A         41  33  73  N1      29.94S
#KITTITAS 3S    N/A         38  36  92  CALM    29.93R
#THORP 6N       N/A         40  35  82  N3      29.95S
$$

WAZ027-041410-
YAKIMA VALLEY

CITY            SKY/WX      TMP DP  RH  WIND    PRES   REMARKS
SUNNYSIDE AP    PTCLDY      41  39  93  CALM    29.93S
YAKIMA AIRPORT  MOCLDY      45  35  68  W8      29.94F
YAKIMA-VAGABOND PTCLDY      42  35  76  E6      29.94S
#DONALD 2NE     N/A         50  32  50  CALM    28.77S
#GRANDVIEW      N/A         45  39  79  CALM    29.93S
#MABTON         N/A         47  40  76  CALM    29.93S
#MOXEE 2E       N/A         43  32  65  CALM    29.93R
#NACHES 2SW     N/A         47  40  76  W6      29.93S
#TERRACE HTS    N/A         49  37  63  CALM    29.87F
#TOPPENISH      N/A         46  38  73  CALM    29.83F
#WAPATO 4NE     N/A         50  32  50  CALM    28.77S
#W YAKIMA       N/A         48  39  71  NW1     29.92S
#WHITE SWAN 5E  N/A         41  37  86  CALM    29.93S
#WILEY CITY 3W  N/A         42  31  65  CALM    29.91R
$$

WAZ028-041410-
LOWER COLUMBIA BASIN...WASHINGTON

CITY            SKY/WX      TMP DP  RH  WIND    PRES   REMARKS
6HR MIN TEMP:   50; 6HR MAX TEMP:   59;

PASCO           PTCLDY      39  36  89  N3      29.93F
#BENTON CITY    N/A         45  39  79  CALM    29.83S
#CONNELL 5N     N/A         39  28  64  CALM    29.91F
#CONNELL 5NW    N/A         39  31  73  CALM    29.88F
#ELTOPIA 6NW    N/A         45  37  73  CALM    28.89F
#KAHLOTUS       N/A         39  29  67  S8      29.91S
#KENNEWICK      N/A         39  37  92  S1      27.56S
#KENNEWICK 3S   N/A         49  39  68  CALM    29.91F
#PASCO-BROADMOORN/A         46  39  76  NE1     29.83F
#PATERSON       N/A         48  42  80  NE1     29.91S
#PROSSER DOT    N/A         46  41  83  CALM    N/A
#PROSSER        N/A         51  37  59  CALM    29.91S
#SAGEMOOR 2W    N/A         45  37  73  CALM    29.76F
#TOUCHET 2S     N/A         36  30  79  CALM    29.91S
#WEST PASCO     N/A         46  38  73  E1      29.90S
$$

WAZ029-041410-
FOOTHILLS OF THE BLUES...WASHINGTON

CITY            SKY/WX      TMP DP  RH  WIND    PRES   REMARKS
WALLA WALLA AP  CLEAR       45  34  65  E3      29.93S
#DAYTON SCHOOL  N/A         40  30  67  N1      29.93S
#LOWDEN 2SE     N/A         39  35  85  E2      29.91S
#PLEASANT VIEW 1N/A         45  35  68  SW5     29.93S
#PRESCOTT       N/A         37  33  85  CALM    29.92R
#SUDBURY        N/A         37  N/A N/A CALM    N/A
#WHITMAN COLLEGEN/A         48  36  63  SE3     29.96S
#WAITSBURG 5S   N/A         45  35  68  CALM    30.01R
#WAITSBURG 8N   N/A         37  16  42  N1      29.79S
#WALLA WALLA U  N/A         47  37  68  CALM    29.92R
#WHITMAN MISSIONN/A         41  37  86  CALM    29.94R
$$

WAZ030-041410-
BLUE MOUNTAINS...WASHINGTON

CITY            SKY/WX      TMP DP  RH  WIND    PRES   REMARKS
#DIXIE 5SE      N/A         47  35  63  S2      29.86F
#SKI BLUEWOOD   N/A         34  30  85  CALM    29.93S
$$

ORZ009-041-WAZ024-041410-
COLUMBIA RIVER GORGE

CITY            SKY/WX      TMP DP  RH  WIND    PRES   REMARKS
THE DALLES AP   PTCLDY      47  41  79  S3      29.95R
#ARLINGTON AIRPON/A         52  42  69  W6      29.83R
#MARYHILL       N/A         50  38  63  CALM    N/A
#MOSIER 1S      N/A         47  39  74  CALM    29.96S

$$

ORZ510-041410-
NORTH CENTRAL OREGON

CITY            SKY/WX      TMP DP  RH  WIND    PRES   REMARKS
#CHENOWITH 1W   N/A         45  43  93  NW18    N/A    WCI 37
#GRASS VALLEY 1SN/A         43  36  76  CALM    29.95R
#MORO SCHOOL    N/A         45  40  82  CALM    29.95S
#SHANIKO 4NW    N/A         44  36  73  CALM    29.94S
#TYGH VALLEY 2NEN/A         45  37  73  CALM    29.93R
#WAPANITIA AIRPON/A         45  38  76  CALM    29.93S
#WASCO 5NE      N/A         48  42  80  CALM    29.91F
$$

ORZ511-041410-
CENTRAL OREGON

CITY            SKY/WX      TMP DP  RH  WIND    PRES   REMARKS
BEND AIRPORT    MOCLDY      36  32  85  CALM    29.94F
PRINEVILLE AP   PTCLDY      32  30  92  CALM    29.93F
REDMOND AIRPORT MOCLDY      33  29  85  S3      29.94S
#BEND 1SW       N/A         33  28  82  NE1     N/A
#BEND-AWBREY    N/A         40  36  85  CALM    29.90F
#BEND-KIM LN    N/A         38  34  85  CALM    29.90F
#CULVER         N/A         41  36  82  CALM    29.91S
#LAKE BILLY CHINN/A         43  26  51  W3      30.03S
#MADRAS         N/A         41  36  82  S2      N/A
#POWELL BUTTE 3EN/A         36  33  89  SE1     N/A
#POWELL BUTTE   N/A         39  33  79  W2      29.56F
#PRINEVILLE 3N  N/A         35  33  92  CALM    29.88S
#WARM SPRINGS   N/A         47  37  68  S2      29.92S

$$


ORZ509-041410-
EAST SLOPES OF OREGON CASCADES

CITY            SKY/WX      TMP DP  RH  WIND    PRES   REMARKS
#CAMP SHERMAN   N/A         31  28  88  CALM    29.96F
#LA PINE 4NW    N/A         23  18  81  CALM    29.98S
#SISTERS AIRPOR N/A         30  30  100 CALM    30.17S
#SUNRIVER       N/A         28  26  92  CALM    29.82S
#TUMALO 3W      N/A         39  35  85  SW5     29.80F

$$

ORZ044-041410-
LOWER COLUMBIA BASIN...OREGON

CITY            SKY/WX      TMP DP  RH  WIND    PRES   REMARKS
HERMISTON       PTCLDY      40  35  82  E3      29.93S
#BOARDMAN SCHOOLN/A         50  43  77  CALM    29.94R
#ECHO 8SW       N/A         47  37  68  S1      29.93S
#IONE SCHOOL    N/A         46  31  56  CALM    29.91S
#IRRIGON 4NW    N/A         50  45  83  E5      N/A
#UMATILLA SCHOOLN/A         41  41  100 CALM    29.97F
#UMATILLA       N/A         45  37  73  CALM    29.84F
$$

ORZ507-041410-
NORTHERN FOOTHILLS OF THE BLUES

CITY            SKY/WX      TMP DP  RH  WIND    PRES   REMARKS
PENDLETON AIRPT CLEAR       41  30  65  SE8     29.93S
#ADAMS 3WNW     N/A         35  26  69  CALM    29.94R
#ATHENA         N/A         41  32  70  CALM    29.94S
#CAYUSE         N/A         45  33  63  E8      29.91S
#HELIX SCHOOL   N/A         35  27  72  CALM    29.92R
#HELIX 3N       N/A         46  36  68  N6      29.90S
#HOLDMAN 5SE    N/A         39  31  73  SE5     29.93F
#HOLDMAN 6E     N/A         44  35  70  CALM    29.72S
#M-F GROVE ELEM N/A         46  33  60  CALM    29.91S
#M-FREEWATER 5SEN/A         44  35  70  CALM    29.94S
#PENDLETON DNTN N/A         38  21  50  CALM    29.96F
#PDT AQUATIC CTRN/A         39  21  48  CALM    29.88S
#PDT SUNRIDGE   N/A         36  29  75  CALM    29.95S
#PENDLETON 7NW  N/A         36  26  67  CALM    28.74S
#PILOT ROCK     N/A         45  31  58  CALM    29.96S
#TUTUILLA       N/A         35  30  82  CALM    29.93S
#UMAPINE 2E     N/A         41  36  82  CALM    29.91S
#WESTON SCHOOL  N/A         46  31  56  NW2     29.85S

$$

ORZ508-041410-
SOUTHERN FOOTHILLS OF THE BLUES

CITY            SKY/WX      TMP DP  RH  WIND    PRES   REMARKS
#AJAX           N/A         48  32  54  CALM    29.88S
#CONDON 5W      N/A         43  34  70  W5      29.89F
#FOSSIL SCHOOL  N/A         66  51  58  CALM    29.94S
#HEPPNER EOC    N/A         42  34  73  E5      29.85S
#HEPPNER 4NE    N/A         45  37  73  CALM    29.90F
#LEXINGTON 2SE  N/A         45  36  70  E7      29.91S
#OLEX 4N        N/A         49  39  68  W6      29.92S
#RUGGS 5NE      N/A         39  33  79  S1      30.07S
#RUGGS 2SW      N/A         41  33  73  S3      29.93S

$$

ORZ502-503-041410-
BLUE MOUNTAINS

CITY            SKY/WX      TMP DP  RH  WIND    PRES   REMARKS
MEACHAM         CLEAR       25  21  84  CALM    29.94S
#HEPPNER 15SE   N/A         34  29  82  CALM    29.82F
#LONG CREEK HS  N/A         32  31  96  CALM    29.89S
#PIKES PEAK     N/A         45  33  63  SW8     27.99S
#TOLLGATE       N/A         33  32  96  CALM    29.81S
#TROY SCHOOL    N/A         41  38  89  CALM    29.80S
#UKIAH          N/A         23  21  92  CALM    30.01R
#WESTON 4E      N/A         43  34  70  CALM    29.86R
$$

ORZ505-041410-
JOHN DAY BASIN

CITY            SKY/WX      TMP DP  RH  WIND    PRES   REMARKS
JOHN DAY        CLEAR       36  30  79  E6      29.93S
#JOHN DAY KJDY  N/A         35  -56  1  CALM    30.08F
#MITCHELL       N/A         39  34  82  CALM    30.10F
#MITCHELL 8NW   N/A         44  36  73  CALM    30.09S
#MONUMENT HS    N/A         39  30  70  CALM    29.96S
#MT. VERNON 5SE N/A         36  28  72  CALM    29.88S
#SPRAY SCHOOL   N/A         38  N/A N/A CALM    N/A
$$

ORZ506-041410-
OCHOCO AND JOHN DAY HIGHLANDS

CITY            SKY/WX      TMP DP  RH  WIND    PRES   REMARKS
#PAULINA SCHOOL N/A         63  25  23  CALM    29.88F
#PINE MTN OBS   N/A         33  31  92  CALM    N/A
#PRAIRIE CITY   N/A         29  26  88  CALM    30.12S
#SENECA         N/A         25  N/A N/A CALM    N/A
#SENECA 9NW     N/A         25  22  88  CALM    29.89R
$$

ORZ049-041410-
GRANDE RONDE VALLEY

CITY            SKY/WX      TMP DP  RH  WIND    PRES   REMARKS
LA GRANDE       CLEAR       34  21  58  CALM    29.93S
#COVE           N/A         36  34  92  N1      29.95F
#COVE SCHOOL    N/A         36  32  85  CALM    29.96S
#ELGIN 3N       N/A         34  28  78  CALM    29.92F
#ELGIN 1E       N/A         35  30  82  CALM    N/A
#ISLAND CITY 4N N/A         43  42  96  CALM    29.99S
#LA GRANDE ELEM N/A         42  31  65  CALM    29.95S
#UNION 1S       N/A         34  32  92  CALM    29.83R
$$

ORZ050-041410-
WALLOWA COUNTY

CITY            SKY/WX      TMP DP  RH  WIND    PRES   REMARKS
#ENTERPRISE HS  N/A         34  32  92  CALM    29.97S
#IMNAHA SCHOOL  N/A         46  42  86  S1      29.94S
#IMNAHA 10S     N/A         45  39  79  SW3     29.94S
#JOSEPH 3N      N/A         31  25  78  CALM    29.96S
#JOSEPH 3W      N/A         36  35  96  SW2     29.78S
#LOSTINE        N/A         33  31  92  CALM    29.72S
#MT HOWARD 8000 N/A         32  28  85  CALM    29.96S
#PROMISE 1S     N/A         36  34  92  CALM    30.02R
#WALLOWA SCHOOL N/A         35  34  96  CALM    29.93S



$$



USA.gov is the U.S. government's official web portal to all federal, state and local government web resources and services.